| time (UTC) | temp C | wind direction | speed KPH | gust KPH | rain 1hr cm | rain 24hr cm | rain mn cm | humidity % | barometer mb |
| 20260504231341 | 18 | 186 | 0.0 | 0.0 | 0.00 | 0.00 | 0.00 | 46 | 1035.2 |
| 20260504230837 | 18 | 114 | 3.2 | 3.2 | 0.00 | 0.00 | 0.00 | 44 | 1035.2 |
| 20260504230335 | 18 | 190 | 1.6 | 3.2 | 0.00 | 0.00 | 0.00 | 44 | 1035.0 |
| 20260504225833 | 18 | 169 | 6.4 | 11.3 | 0.00 | 0.00 | 0.00 | 44 | 1034.8 |
| 20260504225329 | 18 | 186 | 0.0 | 0.0 | 0.00 | 0.00 | 0.00 | 44 | 1034.8 |
| 20260504224827 | 19 | 321 | 4.8 | 4.8 | 0.00 | 0.00 | 0.00 | 41 | 1034.7 |
| 20260504224324 | 19 | 197 | 0.0 | 0.0 | 0.00 | 0.00 | 0.00 | 43 | 1034.4 |
| 20260504223820 | 19 | 199 | 0.0 | 0.0 | 0.00 | 0.00 | 0.00 | 41 | 1034.6 |
| 20260504223316 | 19 | 190 | 0.0 | 0.0 | 0.00 | 0.00 | 0.00 | 41 | 1034.4 |
| 20260504222813 | 20 | 205 | 1.6 | 3.2 | 0.00 | 0.00 | 0.00 | 41 | 1034.6 |
| 20260504222309 | 20 | 222 | 0.0 | 0.0 | 0.00 | 0.00 | 0.00 | 41 | 1034.5 |
| 20260504221808 | 20 | 189 | 0.0 | 0.0 | 0.00 | 0.00 | 0.00 | 40 | 1034.5 |
| 20260504221304 | 20 | 193 | 0.0 | 0.0 | 0.00 | 0.00 | 0.00 | 42 | 1034.5 |
| 20260504220801 | 20 | 161 | 3.2 | 3.2 | 0.00 | 0.00 | 0.00 | 43 | 1034.5 |
| 20260504220258 | 20 | 187 | 0.0 | 1.6 | 0.00 | 0.00 | 0.00 | 39 | 1034.4 |
| 20260504215755 | 20 | 216 | 0.0 | 0.0 | 0.00 | 0.00 | 0.00 | 41 | 1034.7 |
| 20260504215252 | 20 | 190 | 0.0 | 0.0 | 0.00 | 0.00 | 0.00 | 42 | 1034.5 |
| 20260504214747 | 20 | 210 | 4.8 | 4.8 | 0.00 | 0.00 | 0.00 | 39 | 1034.6 |
| 20260504214244 | 20 | 202 | 0.0 | 0.0 | 0.00 | 0.00 | 0.00 | 38 | 1034.7 |
| 20260504213741 | 20 | 198 | 4.8 | 8.0 | 0.00 | 0.00 | 0.00 | 38 | 1034.6 |
| 20260504213237 | 21 | 238 | 3.2 | 3.2 | 0.00 | 0.00 | 0.00 | 37 | 1034.7 |
| 20260504212735 | 20 | 195 | 0.0 | 0.0 | 0.00 | 0.00 | 0.00 | 38 | 1034.3 |
| 20260504212231 | 21 | 167 | 3.2 | 3.2 | 0.00 | 0.00 | 0.00 | 38 | 1034.4 |
| 20260504211729 | 21 | 190 | 0.0 | 0.0 | 0.00 | 0.00 | 0.00 | 37 | 1034.6 |
| 20260504211224 | 21 | 222 | 1.6 | 1.6 | 0.00 | 0.00 | 0.00 | 37 | 1034.6 |
| 20260504210722 | 20 | 218 | 0.0 | 1.6 | 0.00 | 0.00 | 0.00 | 37 | 1034.8 |
| 20260504210214 | 21 | 167 | 1.6 | 1.6 | 0.00 | 0.00 | 0.00 | 37 | 1034.7 |
| 20260504205711 | 20 | 201 | 3.2 | 4.8 | 0.00 | 0.00 | 0.00 | 38 | 1034.6 |
| 20260504205208 | 20 | 194 | 1.6 | 1.6 | 0.00 | 0.00 | 0.00 | 38 | 1034.6 |
| 20260504204706 | 21 | 168 | 1.6 | 3.2 | 0.00 | 0.00 | 0.00 | 37 | 1034.6 |
| 20260504204205 | 21 | 213 | 1.6 | 1.6 | 0.00 | 0.00 | 0.00 | 35 | 1034.5 |
| 20260504203703 | 21 | 194 | 4.8 | 4.8 | 0.00 | 0.00 | 0.00 | 37 | 1034.3 |
| 20260504203201 | 21 | 203 | 1.6 | 1.6 | 0.00 | 0.00 | 0.00 | 35 | 1034.6 |
| 20260504202700 | 21 | 134 | 4.8 | 17.7 | 0.00 | 0.00 | 0.00 | 36 | 1034.5 |
| 20260504202158 | 22 | 219 | 1.6 | 3.2 | 0.00 | 0.00 | 0.00 | 35 | 1034.6 |
| 20260504201654 | 21 | 210 | 1.6 | 1.6 | 0.00 | 0.00 | 0.00 | 35 | 1034.6 |
| 20260504201152 | 21 | 217 | 0.0 | 0.0 | 0.00 | 0.00 | 0.00 | 36 | 1034.7 |
| 20260504200649 | 21 | 204 | 0.0 | 0.0 | 0.00 | 0.00 | 0.00 | 38 | 1034.7 |
| 20260504200146 | 21 | 218 | 0.0 | 0.0 | 0.00 | 0.00 | 0.00 | 37 | 1034.7 |
| 20260504195642 | 21 | 8 | 0.0 | 0.0 | 0.00 | 0.00 | 0.00 | 35 | 1034.5 |
| 20260504195138 | 21 | 191 | 0.0 | 0.0 | 0.00 | 0.00 | 0.00 | 37 | 1034.6 |
| 20260504194635 | 21 | 212 | 3.2 | 4.8 | 0.00 | 0.00 | 0.00 | 36 | 1034.7 |
| 20260504194131 | 21 | 284 | 1.6 | 3.2 | 0.00 | 0.00 | 0.00 | 36 | 1034.6 |
| 20260504193627 | 20 | 216 | 0.0 | 0.0 | 0.00 | 0.00 | 0.00 | 37 | 1034.8 |
| 20260504193126 | 21 | 224 | 0.0 | 1.6 | 0.00 | 0.00 | 0.00 | 36 | 1034.7 |
| 20260504192623 | 20 | 310 | 6.4 | 9.7 | 0.00 | 0.00 | 0.00 | 36 | 1034.8 |
| 20260504192121 | 20 | 201 | 0.0 | 0.0 | 0.00 | 0.00 | 0.00 | 39 | 1034.9 |
| 20260504191620 | 21 | 342 | 4.8 | 4.8 | 0.00 | 0.00 | 0.00 | 36 | 1034.7 |
| 20260504191115 | 21 | 305 | 4.8 | 4.8 | 0.00 | 0.00 | 0.00 | 35 | 1034.6 |
| 20260504190612 | 22 | 255 | 4.8 | 4.8 | 0.00 | 0.00 | 0.00 | 34 | 1034.7 |
| 20260504190108 | 22 | 310 | 3.2 | 3.2 | 0.00 | 0.00 | 0.00 | 34 | 1034.5 |
| 20260504185605 | 22 | 262 | 0.0 | 3.2 | 0.00 | 0.00 | 0.00 | 35 | 1034.8 |
| 20260504185101 | 22 | 195 | 1.6 | 3.2 | 0.00 | 0.00 | 0.00 | 35 | 1034.6 |
| 20260504184557 | 22 | 247 | 0.0 | 3.2 | 0.00 | 0.00 | 0.00 | 36 | 1034.6 |
| 20260504184052 | 22 | 251 | 0.0 | 0.0 | 0.00 | 0.00 | 0.00 | 34 | 1034.5 |
| 20260504183550 | 21 | 185 | 0.0 | 0.0 | 0.00 | 0.00 | 0.00 | 36 | 1034.8 |
| 20260504183048 | 20 | 327 | 6.4 | 9.7 | 0.00 | 0.00 | 0.00 | 36 | 1034.9 |
| 20260504182544 | 20 | 215 | 1.6 | 8.0 | 0.00 | 0.00 | 0.00 | 37 | 1034.9 |
| 20260504182042 | 21 | 131 | 3.2 | 4.8 | 0.00 | 0.00 | 0.00 | 37 | 1035.0 |
| 20260504181539 | 21 | 143 | 1.6 | 3.2 | 0.00 | 0.00 | 0.00 | 36 | 1034.8 |
| 20260504181037 | 20 | 237 | 3.2 | 4.8 | 0.00 | 0.00 | 0.00 | 34 | 1034.9 |
| 20260504180536 | 20 | 212 | 1.6 | 3.2 | 0.00 | 0.00 | 0.00 | 37 | 1034.9 |
| 20260504180034 | 19 | 224 | 3.2 | 11.3 | 0.00 | 0.00 | 0.00 | 38 | 1034.9 |
| 20260504175531 | 20 | 282 | 3.2 | 4.8 | 0.00 | 0.00 | 0.00 | 38 | 1035.0 |
| 20260504175028 | 20 | 201 | 0.0 | 0.0 | 0.00 | 0.00 | 0.00 | 37 | 1035.0 |
| 20260504174526 | 20 | 219 | 0.0 | 0.0 | 0.00 | 0.00 | 0.00 | 36 | 1035.0 |
| 20260504174022 | 20 | 25 | 1.6 | 3.2 | 0.00 | 0.00 | 0.00 | 36 | 1035.1 |
| 20260504173519 | 21 | 229 | 1.6 | 3.2 | 0.00 | 0.00 | 0.00 | 35 | 1035.1 |
| 20260504173017 | 21 | 226 | 0.0 | 0.0 | 0.00 | 0.00 | 0.00 | 35 | 1034.8 |
| 20260504172513 | 20 | 196 | 0.0 | 0.0 | 0.00 | 0.00 | 0.00 | 38 | 1035.1 |
| 20260504172009 | 21 | 256 | 1.6 | 1.6 | 0.00 | 0.00 | 0.00 | 36 | 1034.9 |
| 20260504171506 | 20 | 242 | 3.2 | 4.8 | 0.00 | 0.00 | 0.00 | 37 | 1035.0 |
| 20260504171003 | 20 | 202 | 3.2 | 8.0 | 0.00 | 0.00 | 0.00 | 37 | 1034.9 |
| 20260504170459 | 21 | 227 | 3.2 | 3.2 | 0.00 | 0.00 | 0.00 | 37 | 1035.0 |
| 20260504160419 | 19 | 201 | 1.6 | 3.2 | 0.00 | 0.00 | 0.00 | 38 | 1035.3 |
| 20260504150843 | 17 | 199 | 1.6 | 3.2 | 0.00 | 0.00 | 0.00 | 42 | 1036.1 |
| 20260504150339 | 18 | 320 | 6.4 | 11.3 | 0.00 | 0.00 | 0.00 | 41 | 1035.9 |
| 20260504141310 | 16 | 255 | 0.0 | 0.0 | 0.00 | 0.00 | 0.00 | 46 | 1036.7 |
| 20260504140806 | 16 | 167 | 1.6 | 3.2 | 0.00 | 0.00 | 0.00 | 46 | 1036.8 |
| 20260504140302 | 16 | 166 | 3.2 | 9.7 | 0.00 | 0.00 | 0.00 | 48 | 1037.1 |
| 20260504130731 | 13 | 192 | 1.6 | 1.6 | 0.00 | 0.00 | 0.00 | 55 | 1037.5 |
| 20260504130226 | 13 | 209 | 3.2 | 4.8 | 0.00 | 0.00 | 0.00 | 56 | 1037.6 |
| 20260504120150 | 10 | 190 | 0.0 | 1.6 | 0.00 | 0.00 | 0.00 | 68 | 1037.9 |
| 20260504110618 | 8 | 206 | 0.0 | 0.0 | 0.00 | 0.00 | 0.00 | 72 | 1038.2 |
| 20260504110114 | 7 | 216 | 0.0 | 0.0 | 0.00 | 0.00 | 0.00 | 72 | 1038.3 |
| 20260504100539 | 7 | 232 | 0.0 | 0.0 | 0.00 | 0.00 | 0.00 | 74 | 1037.9 |
| 20260504081933 | 7 | 198 | 0.0 | 0.0 | 0.00 | 0.00 | 0.00 | 70 | 1037.8 |
| 20260504081430 | 7 | 196 | 1.6 | 3.2 | 0.00 | 0.00 | 0.00 | 68 | 1038.0 |
| 20260504080926 | 7 | 190 | 0.0 | 0.0 | 0.00 | 0.00 | 0.00 | 72 | 1037.7 |
| 20260504080423 | 7 | 193 | 0.0 | 0.0 | 0.00 | 0.00 | 0.00 | 71 | 1037.9 |
| 20260504070351 | 6 | 194 | 0.0 | 0.0 | 0.00 | 0.00 | 0.00 | 69 | 1038.1 |
| 20260504050738 | 2 | 189 | 0.0 | 0.0 | 0.00 | 0.00 | 0.00 | 92 | 1037.9 |
| 20260504050235 | 2 | 161 | 0.0 | 0.0 | 0.00 | 0.00 | 0.00 | 92 | 1037.7 |
| 20260504045732 | 2 | 184 | 0.0 | 0.0 | 0.00 | 0.00 | 0.00 | 92 | 1037.8 |
| 20260504045227 | 2 | 178 | 0.0 | 0.0 | 0.00 | 0.00 | 0.00 | 92 | 1037.8 |
| 20260504044725 | 2 | 175 | 0.0 | 0.0 | 0.00 | 0.00 | 0.00 | 92 | 1037.9 |
| 20260504044222 | 2 | 183 | 0.0 | 0.0 | 0.00 | 0.00 | 0.00 | 92 | 1037.9 |
| 20260504043719 | 2 | 168 | 0.0 | 0.0 | 0.00 | 0.00 | 0.00 | 92 | 1037.8 |
| 20260504043216 | 2 | 186 | 0.0 | 0.0 | 0.00 | 0.00 | 0.00 | 91 | 1037.9 |
| 20260504042714 | 2 | 184 | 0.0 | 0.0 | 0.00 | 0.00 | 0.00 | 90 | 1037.8 |
| 20260504042210 | 2 | 190 | 0.0 | 0.0 | 0.00 | 0.00 | 0.00 | 89 | 1038.0 |
| 20260504041706 | 2 | 183 | 0.0 | 0.0 | 0.00 | 0.00 | 0.00 | 88 | 1037.9 |
| 20260504041202 | 2 | 183 | 0.0 | 0.0 | 0.00 | 0.00 | 0.00 | 88 | 1037.6 |
| 20260504040659 | 2 | 192 | 0.0 | 0.0 | 0.00 | 0.00 | 0.00 | 87 | 1037.7 |
| 20260504040156 | 2 | 185 | 0.0 | 0.0 | 0.00 | 0.00 | 0.00 | 87 | 1037.7 |
| 20260504035652 | 2 | 173 | 0.0 | 0.0 | 0.00 | 0.03 | 0.03 | 86 | 1037.7 |
| 20260504035150 | 2 | 187 | 0.0 | 0.0 | 0.00 | 0.03 | 0.03 | 85 | 1037.6 |
| 20260504034647 | 2 | 189 | 0.0 | 0.0 | 0.00 | 0.03 | 0.03 | 84 | 1037.6 |
| 20260504034144 | 2 | 186 | 0.0 | 0.0 | 0.00 | 0.03 | 0.03 | 84 | 1037.7 |
| 20260504033641 | 2 | 183 | 0.0 | 0.0 | 0.00 | 0.03 | 0.03 | 83 | 1037.5 |
| 20260504033139 | 3 | 192 | 0.0 | 0.0 | 0.00 | 0.03 | 0.03 | 81 | 1037.5 |
| 20260504032635 | 2 | 188 | 0.0 | 0.0 | 0.00 | 0.03 | 0.03 | 82 | 1037.8 |
| 20260504032132 | 2 | 188 | 0.0 | 0.0 | 0.00 | 0.03 | 0.03 | 81 | 1037.3 |
| 20260504031630 | 2 | 176 | 0.0 | 0.0 | 0.00 | 0.03 | 0.03 | 81 | 1037.6 |
| 20260504031126 | 2 | 175 | 0.0 | 0.0 | 0.00 | 0.03 | 0.03 | 80 | 1037.5 |
| 20260504030623 | 3 | 191 | 0.0 | 0.0 | 0.00 | 0.03 | 0.03 | 80 | 1037.3 |
| 20260504030120 | 2 | 129 | 0.0 | 0.0 | 0.00 | 0.03 | 0.03 | 78 | 1037.5 |
| 20260504025616 | 3 | 183 | 0.0 | 0.0 | 0.00 | 0.03 | 0.03 | 78 | 1037.5 |
| 20260504025113 | 3 | 183 | 0.0 | 0.0 | 0.00 | 0.03 | 0.03 | 79 | 1037.5 |
| 20260504024611 | 3 | 188 | 0.0 | 0.0 | 0.00 | 0.03 | 0.03 | 83 | 1037.7 |
| 20260504024107 | 3 | 188 | 0.0 | 0.0 | 0.00 | 0.03 | 0.03 | 78 | 1037.7 |
| 20260504023604 | 3 | 189 | 0.0 | 0.0 | 0.00 | 0.03 | 0.03 | 77 | 1037.7 |
| 20260504023059 | 3 | 188 | 0.0 | 0.0 | 0.00 | 0.03 | 0.03 | 76 | 1037.5 |
| 20260504022556 | 3 | 184 | 0.0 | 0.0 | 0.00 | 0.03 | 0.03 | 77 | 1037.6 |
| 20260504022052 | 3 | 185 | 0.0 | 0.0 | 0.00 | 0.03 | 0.03 | 76 | 1037.6 |
| 20260504021550 | 3 | 185 | 0.0 | 0.0 | 0.00 | 0.03 | 0.03 | 76 | 1037.4 |
| 20260504021046 | 4 | 188 | 0.0 | 0.0 | 0.00 | 0.03 | 0.03 | 75 | 1037.6 |
| 20260504020543 | 4 | 187 | 0.0 | 0.0 | 0.00 | 0.03 | 0.03 | 74 | 1037.6 |
| 20260504020040 | 3 | 189 | 0.0 | 0.0 | 0.00 | 0.03 | 0.03 | 72 | 1037.4 |
| 20260504015537 | 4 | 185 | 0.0 | 0.0 | 0.00 | 0.03 | 0.03 | 73 | 1037.4 |
| 20260504015032 | 3 | 184 | 0.0 | 0.0 | 0.00 | 0.03 | 0.03 | 74 | 1037.6 |
| 20260504014528 | 3 | 187 | 0.0 | 0.0 | 0.00 | 0.03 | 0.03 | 74 | 1037.7 |
| 20260504014026 | 3 | 183 | 0.0 | 0.0 | 0.00 | 0.03 | 0.03 | 75 | 1037.5 |
| 20260504013524 | 3 | 186 | 0.0 | 0.0 | 0.00 | 0.03 | 0.03 | 75 | 1037.4 |
| 20260504013020 | 3 | 185 | 0.0 | 0.0 | 0.00 | 0.03 | 0.03 | 75 | 1037.6 |
| 20260504012518 | 3 | 188 | 0.0 | 0.0 | 0.00 | 0.03 | 0.03 | 75 | 1037.4 |
| 20260504012016 | 4 | 188 | 0.0 | 0.0 | 0.00 | 0.03 | 0.03 | 74 | 1037.5 |
| 20260504011512 | 4 | 188 | 0.0 | 0.0 | 0.00 | 0.03 | 0.03 | 74 | 1037.4 |
| 20260504011008 | 4 | 189 | 0.0 | 0.0 | 0.00 | 0.03 | 0.03 | 73 | 1037.0 |
| 20260504010504 | 4 | 189 | 0.0 | 0.0 | 0.00 | 0.03 | 0.03 | 71 | 1037.4 |
| 20260504010000 | 4 | 189 | 0.0 | 0.0 | 0.00 | 0.03 | 0.03 | 71 | 1037.1 |
| 20260504005457 | 5 | 188 | 0.0 | 0.0 | 0.00 | 0.03 | 0.03 | 72 | 1037.1 |
| 20260504004954 | 5 | 188 | 0.0 | 0.0 | 0.00 | 0.03 | 0.03 | 72 | 1036.8 |
| 20260504004452 | 5 | 188 | 0.0 | 0.0 | 0.00 | 0.03 | 0.03 | 72 | 1036.7 |
| 20260504003949 | 5 | 190 | 0.0 | 0.0 | 0.00 | 0.03 | 0.03 | 72 | 1036.8 |
| 20260504003445 | 5 | 193 | 0.0 | 0.0 | 0.00 | 0.03 | 0.03 | 70 | 1036.9 |
| 20260504002942 | 5 | 185 | 0.0 | 0.0 | 0.00 | 0.03 | 0.03 | 70 | 1036.6 |
| 20260504002439 | 6 | 188 | 0.0 | 0.0 | 0.00 | 0.03 | 0.03 | 67 | 1036.8 |
| 20260504001936 | 6 | 183 | 0.0 | 0.0 | 0.00 | 0.03 | 0.03 | 66 | 1036.8 |
| 20260504001433 | 6 | 191 | 0.0 | 0.0 | 0.00 | 0.03 | 0.03 | 65 | 1036.6 |
| 20260504000930 | 6 | 186 | 0.0 | 0.0 | 0.00 | 0.03 | 0.03 | 61 | 1036.5 |
| 20260504000427 | 6 | 183 | 0.0 | 0.0 | 0.00 | 0.03 | 0.03 | 61 | 1036.4 |
| 20260503235924 | 7 | 184 | 0.0 | 0.0 | 0.00 | 0.03 | 0.03 | 59 | 1036.5 |
| 20260503235422 | 7 | 190 | 1.6 | 1.6 | 0.00 | 0.03 | 0.03 | 56 | 1036.3 |
| 20260503234919 | 7 | 182 | 1.6 | 3.2 | 0.00 | 0.03 | 0.03 | 57 | 1036.4 |
| 20260503234417 | 7 | 220 | 4.8 | 4.8 | 0.00 | 0.03 | 0.03 | 56 | 1036.2 |
| 20260503233915 | 7 | 203 | 0.0 | 0.0 | 0.00 | 0.03 | 0.03 | 55 | 1036.3 |
| 20260503233411 | 8 | 270 | 3.2 | 3.2 | 0.00 | 0.03 | 0.03 | 54 | 1036.0 |
| 20260503232908 | 8 | 192 | 0.0 | 0.0 | 0.00 | 0.03 | 0.03 | 55 | 1036.0 |
| 20260503232405 | 8 | 233 | 4.8 | 4.8 | 0.00 | 0.03 | 0.03 | 54 | 1036.0 |
| 20260503231902 | 8 | 197 | 1.6 | 1.6 | 0.00 | 0.03 | 0.03 | 54 | 1035.9 |